Wind_Speed
103 103 104 104 105 107 108 109 110 112 113 114 115 116 117 118 119 119 120 121 121 122 123 124 125 126 127 128 129 130 131 132 134 135 136 137 139 140 142 143 144 145 147 149 150 151 151 151 151 151 151 151 151 150 149 149 148 149 149 150 151 152 153 155 156 157 158 159 159 160 159 157 154 151 149 148 146 145 143 141 139 138 136 134 133 131
101 102 102 103 104 105 107 108 109 111 112 113 115 116 117 118 119 120 120 121 122 123 124 125 126 126 128 129 130 131 132 133 134 136 137 138 139 141 142 143 145 146 147 149 151 152 152 152 152 152 152 152 152 151 151 150 149 149 149 149 150 151 152 154 155 156 157 158 159 160 160 159 157 154 151 149 148 146 145 143 142 140 138 136 135 133
100 101 101 102 103 104 105 107 108 110 111 113 114 115 116 117 118 119 120 121 122 123 124 125 126 127 128 129 130 132 133 134 135 136 137 139 140 141 142 144 145 146 148 150 151 152 153 153 153 153 153 153 152 152 151 151 150 149 149 149 149 150 151 152 154 155 156 157 158 159 160 160 159 157 154 152 149 148 146 145 143 142 140 139 137 135
98 99 100 101 101 102 104 105 107 109 110 112 113 114 115 116 117 118 120 121 122 123 124 125 126 127 129 130 131 132 133 134 136 137 138 139 140 141 142 144 145 146 148 150 151 152 153 153 153 153 153 153 153 153 152 152 151 150 150 149 149 149 150 151 152 154 155 156 157 158 159 160 160 159 157 154 152 150 148 147 145 144 142 141 139 137
97 98 99 99 100 101 102 104 106 107 109 111 112 113 114 115 116 118 119 120 121 123 124 125 126 128 129 130 131 132 133 135 136 137 138 139 140 142 143 144 145 146 148 150 151 153 153 154 154 154 154 154 153 153 153 152 151 151 150 150 149 149 149 150 151 152 154 155 156 157 158 159 159 160 159 157 155 152 150 148 147 146 144 143 141 139
96 97 98 98 98 99 100 102 104 106 107 109 110 111 113 114 115 116 117 119 120 122 124 125 126 127 128 129 131 132 133 134 136 137 138 139 140 141 143 144 145 146 147 149 151 152 153 153 154 154 154 154 154 153 153 152 152 151 151 150 150 149 149 149 150 151 152 154 155 156 157 158 158 159 160 159 157 155 152 150 149 147 146 145 143 142
94 95 96 97 97 98 98 100 102 103 105 107 108 109 111 112 113 115 116 118 119 121 122 124 125 126 128 129 130 131 132 134 135 136 137 139 140 141 142 144 145 146 147 148 150 151 152 153 153 153 153 153 153 153 153 153 152 152 151 151 150 150 150 149 149 150 151 152 153 155 155 156 157 158 159 159 159 157 155 153 150 149 148 146 145 144
93 93 94 95 95 96 96 98 99 101 103 104 106 107 108 110 112 113 115 116 118 119 121 122 124 125 126 128 129 130 131 132 134 135 136 138 139 140 142 143 144 146 147 148 149 150 151 151 152 152 153 153 153 153 153 153 152 151 151 151 150 150 150 150 149 149 150 151 152 153 154 155 156 157 158 159 159 159 157 155 153 151 149 148 147 146
91 92 92 93 93 94 94 95 97 99 101 102 103 104 105 107 109 111 113 114 116 118 119 120 122 123 125 126 128 129 130 131 132 134 135 136 138 139 141 142 144 145 146 147 148 149 149 150 150 151 151 152 152 152 152 152 152 152 151 151 150 150 150 150 150 149 149 150 150 151 153 154 155 156 157 158 159 159 159 157 155 153 151 150 149 147
89 90 90 90 90 91 91 92 94 96 97 99 100 101 102 104 106 108 110 112 114 115 117 118 119 121 123 125 126 128 129 130 131 132 133 135 136 138 139 141 142 144 145 147 147 148 148 149 149 149 150 150 151 151 151 151 151 151 151 150 150 150 150 150 150 150 149 149 149 150 151 152 153 154 155 156 158 159 159 159 157 156 153 152 150 149
87 87 87 87 87 88 88 89 91 92 94 95 96 98 99 101 103 105 106 108 111 113 114 116 118 119 121 122 124 126 127 128 129 131 132 133 134 136 137 139 141 142 144 145 147 147 148 148 148 148 148 148 149 150 150 150 151 151 151 150 150 150 149 149 149 149 149 149 149 149 150 151 152 153 154 155 156 157 159 159 159 158 156 154 152 151
84 84 84 83 84 84 85 86 87 89 90 91 92 94 95 97 99 101 103 105 107 109 111 113 115 117 118 120 122 124 125 127 128 129 130 131 132 134 136 137 139 141 142 144 145 146 147 147 147 147 147 147 147 148 149 149 150 150 150 150 149 149 149 149 149 149 149 149 149 149 149 149 150 151 152 153 154 156 157 158 159 159 158 156 154 152
81 81 80 80 80 81 82 83 84 85 87 88 89 90 91 93 95 97 98 100 102 105 107 109 111 113 115 117 119 121 123 124 126 127 128 129 130 132 133 135 137 139 141 142 144 145 145 146 146 146 146 145 146 146 147 148 149 149 149 149 149 148 148 148 148 148 149 149 149 149 149 148 149 150 151 152 153 154 156 157 159 159 159 158 156 154
78 78 77 77 78 78 80 81 82 83 84 85 86 87 88 89 91 92 94 96 98 100 102 104 106 109 111 114 116 118 120 122 123 124 125 127 128 130 131 133 135 137 138 140 141 142 143 144 144 144 144 144 144 145 146 146 147 148 148 148 148 148 147 147 147 147 148 148 149 149 149 148 148 148 149 150 151 152 154 155 157 159 159 159 158 156
75 75 75 75 75 76 78 79 80 80 81 82 83 84 85 85 87 88 90 91 93 95 97 99 101 104 107 110 112 115 117 119 120 122 123 124 126 127 129 130 132 134 136 138 139 140 141 142 143 143 143 143 143 144 144 145 146 147 147 147 147 147 147 147 147 146 147 147 148 148 148 148 148 148 148 149 150 151 152 153 155 157 159 159 159 158
73 73 72 73 73 75 76 77 77 78 79 80 80 81 81 82 83 85 86 88 89 91 92 94 96 99 102 105 109 111 114 115 117 118 120 121 123 124 126 127 129 131 133 135 136 138 139 140 141 141 142 142 142 143 143 144 144 145 146 146 147 147 146 146 146 146 146 146 146 147 147 148 148 147 147 147 148 149 150 151 153 155 157 159 159 159
70 70 70 71 71 73 74 75 75 76 76 77 77 77 78 78 80 81 83 84 85 86 87 90 92 94 97 101 104 108 110 112 113 115 116 117 119 121 123 124 126 127 129 131 133 135 137 138 139 140 141 141 141 142 142 142 143 144 145 145 146 146 146 145 145 145 145 145 145 145 146 146 147 147 147 146 146 147 148 149 151 153 155 157 158 159
67 68 68 69 69 70 71 72 73 73 74 74 74 74 74 75 76 77 79 80 81 82 83 85 87 90 93 96 100 104 107 108 109 111 112 113 115 117 119 121 122 124 125 127 130 132 134 135 137 138 139 139 140 140 141 141 141 142 143 144 144 145 145 144 144 143 143 143 142 142 143 144 145 145 146 146 146 146 146 147 149 151 152 155 157 158
64 64 65 66 67 68 69 70 71 71 71 70 70 70 70 71 72 74 75 76 77 78 79 81 83 86 89 92 96 100 103 104 105 106 108 109 111 114 116 117 118 120 121 123 126 128 130 132 134 136 137 138 139 139 139 139 140 140 141 142 142 143 143 143 142 142 141 140 140 140 140 141 142 143 144 145 145 145 145 146 147 148 150 152 154 157
60 60 61 63 64 65 66 67 68 69 68 68 67 66 66 67 69 70 72 73 74 75 76 78 80 82 85 88 92 96 99 101 102 102 103 105 107 109 112 113 115 116 118 119 122 124 126 129 131 133 134 136 137 138 138 138 138 139 139 140 140 141 141 141 140 140 139 139 138 138 138 138 139 140 142 143 144 144 144 144 145 146 148 150 152 154
56 57 58 59 60 62 63 64 66 66 66 65 64 63 63 64 65 67 68 70 71 72 73 75 77 79 82 85 88 92 95 97 98 99 100 101 103 105 107 109 111 112 114 115 117 120 122 124 127 129 131 133 135 136 136 137 136 136 137 137 137 138 138 138 138 138 138 138 138 137 137 136 137 138 139 141 142 143 143 143 143 144 145 147 149 151
54 54 54 56 57 58 59 61 62 63 64 63 62 61 61 61 62 64 65 67 68 69 71 73 75 77 79 82 85 88 91 92 94 95 95 96 98 101 103 105 107 108 109 111 113 115 117 120 123 125 128 130 132 133 134 135 135 134 134 134 134 135 135 136 137 137 138 138 138 137 136 136 135 135 136 137 139 141 142 142 142 142 143 145 146 148
52 51 52 53 54 55 56 57 59 60 61 61 60 59 59 59 60 61 62 64 65 67 69 70 72 74 76 78 81 84 86 88 89 90 91 92 94 97 99 101 102 104 105 107 109 111 113 115 118 121 123 126 128 130 131 132 132 132 132 132 132 133 133 134 135 135 136 136 136 135 135 134 133 133 133 134 135 137 139 140 141 141 142 142 144 146
50 50 50 50 51 52 53 54 55 56 57 58 58 57 57 57 57 58 59 61 63 65 66 68 69 71 73 76 78 80 82 84 85 86 86 88 90 92 95 96 98 99 101 103 105 106 108 111 113 116 118 121 124 126 127 129 130 130 131 131 131 131 132 132 133 133 133 133 132 131 131 130 130 130 129 130 131 133 136 138 139 140 140 141 142 143
49 49 48 48 49 49 50 51 52 53 54 55 55 55 55 55 55 55 57 58 60 62 64 65 66 68 70 73 75 76 78 80 81 81 82 83 86 88 90 92 94 95 97 98 100 102 104 106 108 111 113 116 119 121 123 125 126 128 129 129 130 130 130 131 131 131 130 129 128 127 126 126 126 126 126 126 127 129 132 134 137 138 139 139 140 141
48 47 47 47 47 47 48 48 49 50 51 52 52 52 52 52 52 53 54 56 58 60 61 62 64 66 68 69 71 73 74 75 76 77 78 79 81 84 86 88 89 91 92 94 96 98 100 101 103 106 108 111 113 116 118 121 123 124 126 127 128 128 129 129 129 128 127 127 125 124 123 123 123 123 123 123 124 126 128 131 134 136 138 139 139 140
47 46 46 46 46 46 46 46 47 47 48 49 49 50 50 50 50 51 52 54 56 57 58 59 61 63 65 66 68 69 71 71 72 73 74 75 77 79 82 84 85 86 88 90 92 93 95 97 99 101 103 106 108 111 113 116 118 121 123 124 125 126 126 126 126 125 124 124 123 122 122 121 121 121 121 121 122 123 125 128 131 134 136 137 138 138
46 45 45 44 44 44 44 45 45 45 46 46 47 47 47 47 48 49 51 52 54 55 55 57 58 60 62 63 65 66 67 68 69 69 70 71 72 75 77 79 81 82 84 86 87 89 91 92 94 96 98 101 103 106 108 111 114 116 118 120 121 122 122 122 122 122 122 122 121 121 120 120 120 120 120 120 121 122 123 125 128 131 133 136 137 137
45 44 44 43 43 43 43 43 43 44 44 44 44 44 45 45 46 47 49 50 51 52 53 54 56 57 59 60 62 63 64 65 65 65 65 66 68 70 73 75 77 78 79 81 83 84 86 88 90 92 94 96 98 101 103 106 109 111 113 115 117 117 118 119 119 120 120 121 121 120 120 120 119 120 120 120 120 121 122 123 125 128 131 133 135 136
44 43 43 42 42 41 41 41 41 42 42 42 42 42 42 43 44 45 46 47 48 49 50 52 53 54 56 57 59 60 61 61 61 61 61 62 64 67 70 72 73 74 75 77 78 80 82 84 86 87 89 91 94 96 99 101 104 106 108 110 112 113 114 115 116 117 118 120 120 120 120 120 120 120 120 120 120 121 121 122 124 126 128 130 133 134
43 42 41 41 40 40 40 40 40 40 40 40 40 40 40 41 41 42 44 45 46 47 48 49 50 52 53 54 56 57 58 57 57 56 57 59 61 64 66 68 69 70 71 72 74 76 78 80 81 83 85 87 89 92 94 97 99 101 103 105 107 108 110 111 113 115 117 118 119 120 120 120 120 120 120 120 121 121 121 122 123 124 125 128 130 132
41 40 40 39 39 38 38 38 38 38 38 38 38 38 38 38 39 40 41 42 43 44 45 46 48 49 50 51 52 53 54 53 53 53 54 56 58 61 63 65 66 66 67 68 70 71 73 75 78 80 81 83 86 88 90 92 94 97 99 101 102 104 106 108 110 112 114 116 117 118 119 120 120 120 120 120 121 121 121 122 122 123 124 125 128 130
39 38 38 37 37 37 36 36 36 36 36 36 36 36 36 36 37 38 39 40 41 42 42 44 45 46 47 48 49 50 50 50 50 50 51 54 56 59 60 61 62 63 63 64 66 68 70 72 74 76 78 80 82 84 86 88 90 92 94 96 98 100 102 104 106 109 111 113 114 115 117 118 118 119 120 120 120 121 121 121 121 122 122 124 125 127
37 36 36 35 35 35 34 34 34 34 34 34 34 34 34 34 35 35 36 37 38 39 40 41 42 43 44 45 46 46 47 47 47 48 49 52 54 56 57 58 58 59 59 60 62 64 66 68 70 72 74 76 78 79 81 83 85 87 90 92 94 97 98 100 103 105 107 108 110 112 113 115 116 117 118 119 120 120 120 121 121 121 122 122 123 124
35 34 34 33 33 33 32 32 32 32 32 32 32 32 32 32 33 33 34 34 35 36 37 38 39 40 41 42 42 43 44 44 45 46 48 49 51 53 53 54 54 55 56 57 58 60 63 65 67 69 70 72 74 76 77 79 81 83 85 88 90 92 94 96 98 100 102 104 106 108 109 111 113 115 117 118 119 119 120 120 120 120 121 121 121 121
32 32 31 31 31 30 30 30 29 29 29 29 30 30 30 30 31 31 31 32 33 33 34 35 36 37 38 39 39 40 41 42 43 44 45 47 48 49 50 50 51 51 52 53 55 57 59 61 63 65 66 68 69 71 73 75 77 79 81 84 86 88 90 92 93 95 97 99 101 103 105 108 110 112 114 116 117 118 118 118 119 119 119 119 119 119
30 30 29 29 28 28 27 27 27 27 27 27 28 28 28 28 29 29 29 30 30 31 32 33 34 35 35 36 37 38 38 39 40 41 43 44 45 45 46 47 47 48 49 51 52 54 56 57 59 61 62 64 66 67 69 71 73 75 77 80 82 84 86 87 89 91 93 95 97 99 101 104 107 109 111 113 114 115 116 117 117 117 117 117 117 116
27 27 26 26 25 25 25 25 25 25 25 25 26 26 26 26 27 27 27 28 28 29 30 30 31 32 33 33 34 35 36 37 38 39 40 41 41 42 43 44 44 45 46 48 49 51 52 54 56 57 59 61 62 64 65 67 69 71 74 76 78 80 82 84 85 87 89 91 93 95 97 100 103 105 108 110 111 113 114 115 115 115 115 115 114 114
25 24 24 23 23 23 23 23 23 23 23 24 24 24 24 24 25 25 25 25 26 27 27 28 29 29 30 31 31 32 33 34 35 36 37 38 38 39 40 41 42 43 44 45 46 48 49 51 52 54 56 57 59 60 62 64 66 68 70 71 74 76 78 80 82 83 85 87 89 91 94 96 99 102 105 107 109 110 112 113 113 113 113 113 112 112
23 22 22 22 22 22 22 22 22 22 22 22 22 22 22 22 22 23 23 23 24 24 25 26 26 27 28 28 29 30 31 32 33 33 34 35 36 37 37 38 39 40 41 42 43 45 46 48 50 51 52 54 56 57 59 61 62 64 66 68 70 73 74 76 78 80 82 84 86 88 90 93 95 98 101 103 106 108 109 110 110 111 111 111 111 111
23 22 22 22 22 22 21 21 21 21 21 20 20 20 20 20 20 20 21 21 22 22 23 23 24 25 25 26 27 27 28 29 30 31 32 32 33 34 35 36 37 38 39 40 41 42 44 45 47 48 50 51 52 54 56 57 59 61 63 65 67 69 71 73 75 77 78 80 82 84 87 89 91 94 97 100 102 104 106 107 108 108 108 108 109 110
22 22 21 21 21 21 21 20 20 20 19 19 19 18 18 18 18 18 18 19 19 20 20 21 21 22 23 23 24 25 26 26 27 28 29 30 31 31 32 33 34 35 36 37 38 40 41 42 44 45 47 48 49 51 52 54 55 57 59 61 63 65 67 69 71 73 75 77 79 81 83 85 88 90 93 96 98 101 103 105 106 106 107 107 108 108
21 20 20 20 20 20 19 19 19 18 18 17 17 17 16 16 16 16 16 16 17 17 18 19 19 20 20 21 22 23 23 24 25 26 27 28 28 29 30 31 32 33 34 35 36 37 39 40 41 43 44 45 47 48 50 51 52 54 56 58 60 62 64 66 68 70 72 74 75 77 79 81 84 86 89 92 95 97 100 102 104 105 106 106 107 108
19 19 19 19 18 18 18 18 17 17 16 16 15 15 15 14 14 14 14 14 15 15 16 16 17 18 18 19 20 20 21 22 23 24 24 25 26 27 28 29 30 31 32 33 34 35 36 38 39 40 42 43 44 46 47 48 50 51 53 55 57 59 62 63 65 67 69 70 72 74 76 78 80 82 85 88 91 94 97 100 102 104 105 105 106 107
19 18 18 18 17 17 17 16 16 15 15 14 14 13 13 12 12 12 12 12 13 13 14 14 15 16 16 17 18 18 19 20 21 21 22 23 24 25 26 27 28 29 30 31 32 33 34 36 37 38 40 41 42 44 45 46 48 49 51 53 55 57 59 61 63 64 66 68 69 71 73 74 77 79 82 85 88 92 95 98 101 103 104 105 105 106
18 18 17 17 16 16 15 15 14 14 13 13 12 12 11 10 10 10 10 10 11 11 12 13 13 14 14 15 16 16 17 18 19 19 20 21 22 23 24 25 27 28 29 30 31 32 33 34 35 37 38 39 41 42 43 45 46 48 50 52 54 55 57 59 61 62 64 65 67 68 70 72 74 77 80 83 86 89 93 96 99 101 103 104 104 105
17 17 16 16 15 15 14 13 13 12 12 11 10 10 9 8 8 8 8 9 9 10 10 11 11 12 12 13 14 14 15 16 17 18 19 20 21 22 23 24 25 26 27 28 29 30 32 33 34 35 37 38 39 41 42 44 45 47 48 50 52 54 55 57 59 60 62 63 65 66 68 70 72 75 77 80 83 86 90 93 96 99 101 102 103 104
16 16 15 14 14 13 13 12 12 11 10 9 9 8 7 7 6 6 6 6 7 7 8 8 9 10 11 11 12 13 14 15 15 16 17 18 19 20 21 23 24 25 26 27 28 29 31 32 33 34 36 37 39 40 41 43 44 46 47 49 51 52 54 55 57 58 60 62 63 65 66 68 70 73 75 78 80 84 87 91 94 96 99 100 102 103
15 14 14 13 13 12 12 11 11 10 9 8 8 7 6 5 5 4 4 4 4 5 5 6 7 8 9 10 11 12 13 13 14 15 16 17 18 19 20 21 22 23 25 26 27 28 29 31 32 34 35 36 38 39 40 42 43 45 46 48 49 51 52 54 55 57 58 60 62 63 65 67 69 71 73 76 78 81 85 88 91 94 97 99 100 102
14 14 13 13 12 12 12 11 10 10 9 8 7 6 6 5 4 3 2 2 2 2 3 4 5 6 7 8 9 10 11 12 13 14 15 16 17 18 19 20 21 22 23 24 26 27 28 29 31 32 34 36 37 38 39 41 42 44 45 47 48 50 51 53 54 56 58 59 61 62 64 66 68 70 71 74 76 79 82 85 89 92 95 97 99 100
14 13 13 12 12 12 12 12 11 10 9 9 8 7 6 5 5 4 3 2 1 1 2 2 3 4 5 7 8 9 10 12 13 14 14 15 16 17 18 19 20 21 22 23 25 26 27 28 30 31 33 34 36 38 39 40 41 43 44 46 47 49 51 52 54 55 57 58 60 61 63 65 66 68 70 72 75 77 80 83 87 90 93 95 97 99
Wind_Direction
272 271 269 268 267 266 265 264 263 263 262 261 260 259 259 258 257 255 254 253 251 250 248 247 246 246 245 244 244 243 243 242 241 241 240 239 238 237 236 236 235 235 236 236 237 237 237 237 238 238 238 238 238 237 237 236 236 235 235 235 234 234 233 233 232 232 232 231 231 230 231 231 231 231 231 231 231 231 231 231 231 231 231 231 231 232
272 270 269 267 266 265 264 263 262 262 261 260 259 258 258 257 256 255 254 253 252 251 249 248 247 246 245 244 244 243 243 242 242 241 240 240 239 238 237 236 236 235 235 236 236 236 237 237 237 237 238 238 238 238 237 236 236 235 235 235 234 234 234 233 233 232 232 232 231 231 230 231 231 231 231 231 231 231 231 231 230 231 231 231 231 231
272 270 269 267 266 265 264 263 262 261 260 259 258 258 257 257 256 255 254 254 252 251 250 249 247 246 245 244 244 243 243 242 242 241 241 240 240 239 238 237 236 236 235 236 236 236 236 237 237 237 237 238 238 238 237 237 236 236 235 235 235 234 234 234 233 233 232 232 232 231 231 230 231 231 231 231 231 231 231 230 230 230 230 231 231 231
272 271 269 267 266 265 263 262 261 260 260 259 258 257 257 256 256 255 254 254 253 252 251 250 248 247 246 245 244 243 243 242 242 242 241 241 240 240 239 238 237 236 236 236 236 236 236 237 237 237 237 237 237 238 237 237 236 236 235 235 235 234 234 234 233 233 233 232 232 231 231 231 230 230 231 231 231 231 231 230 230 230 230 230 230 231
273 271 270 268 266 265 264 262 261 260 259 259 258 257 256 256 255 254 254 253 253 252 251 250 249 248 247 246 245 244 243 243 242 242 242 241 241 240 240 239 238 238 237 236 236 236 237 237 237 237 237 237 237 237 237 237 237 236 236 235 235 234 234 234 234 233 233 233 232 232 231 231 230 230 230 231 231 231 231 230 230 230 230 230 230 230
273 272 271 269 267 266 264 263 262 261 260 259 258 257 256 255 255 254 254 253 252 252 251 250 250 249 247 246 245 244 244 243 243 242 242 242 241 241 241 240 240 239 238 237 237 237 237 237 237 237 237 237 237 237 237 237 237 237 236 235 235 235 234 234 234 234 233 233 233 232 232 231 231 230 230 230 230 231 231 230 230 230 230 230 230 230
274 273 271 270 268 267 265 264 263 261 260 259 258 257 256 255 255 254 253 253 252 252 251 251 250 249 248 247 246 245 244 243 243 242 242 242 241 241 241 241 240 240 239 239 238 238 238 238 238 238 237 237 237 237 237 237 237 237 237 236 235 235 234 234 234 234 233 233 233 233 232 232 231 231 230 230 230 230 230 230 230 230 230 230 230 230
275 274 272 271 269 267 266 265 263 262 261 260 258 257 256 255 255 254 253 252 252 251 251 251 250 250 249 248 247 246 245 244 243 243 242 242 241 241 241 241 241 241 240 240 239 239 239 239 238 238 238 238 238 238 238 238 238 237 237 236 236 235 235 234 234 234 233 233 233 233 233 232 232 231 230 230 230 230 230 230 230 230 230 230 230 230
276 274 273 272 270 269 267 265 264 263 261 260 259 257 256 255 255 254 253 252 252 251 251 250 250 250 249 249 248 247 246 245 244 243 242 242 241 241 241 241 241 241 241 241 240 240 240 240 239 239 239 238 238 238 238 238 238 238 237 237 236 236 235 234 234 234 233 233 233 233 233 232 232 231 231 230 230 230 230 230 230 230 230 230 230 230
277 275 274 272 271 269 268 266 265 263 262 260 259 258 256 255 254 254 253 252 252 251 251 250 250 249 249 249 248 247 246 245 244 243 243 242 241 241 241 241 241 241 241 241 241 241 241 240 240 240 239 239 239 239 239 238 238 238 238 238 237 236 236 235 234 234 234 233 233 233 233 233 232 232 231 231 230 230 230 230 230 230 230 230 230 230
277 276 274 273 271 270 268 267 265 264 262 261 260 258 257 256 255 254 253 252 252 251 251 250 250 249 249 249 248 248 247 246 245 244 243 242 242 241 241 240 240 241 241 241 241 241 241 241 241 240 240 240 239 239 239 239 239 239 238 238 238 237 236 236 235 234 234 233 233 233 233 233 232 232 232 231 230 230 230 230 230 230 230 230 230 230
278 276 275 273 272 270 269 267 266 264 263 261 260 259 257 256 255 254 253 252 251 251 251 250 250 249 249 248 248 248 247 247 246 245 244 243 242 241 241 240 240 240 240 241 241 241 241 241 241 241 240 240 240 239 239 239 239 239 239 239 238 238 237 236 236 235 234 234 233 233 233 233 233 232 232 231 231 230 230 230 230 230 230 230 230 230
278 277 275 274 272 271 269 267 266 264 263 262 260 259 258 256 255 254 253 252 251 251 251 250 250 249 249 248 248 248 247 247 246 246 245 244 243 242 241 240 240 240 240 240 241 241 241 241 241 241 241 240 240 239 239 239 239 239 239 239 239 238 238 237 237 236 235 234 233 233 233 233 232 232 232 232 231 231 230 230 229 230 230 230 230 230
279 277 276 274 273 271 269 268 266 264 263 262 261 259 258 257 256 255 254 253 252 251 250 250 250 250 249 249 248 248 247 247 247 246 245 244 243 242 241 241 240 240 240 240 240 240 241 241 241 241 241 241 240 239 239 239 239 239 239 239 239 239 239 238 237 236 236 235 234 233 233 232 232 232 232 232 231 231 230 230 229 229 230 230 230 230
279 278 276 275 273 271 270 268 266 265 263 262 261 260 258 257 256 255 254 253 252 251 250 250 250 249 249 249 249 248 247 247 247 246 246 245 244 243 242 241 241 240 240 240 240 240 240 241 241 241 241 241 240 239 239 239 239 239 239 239 239 239 239 238 238 237 236 235 235 234 233 232 232 232 232 232 232 231 231 230 230 229 229 230 230 230
279 278 276 275 273 271 270 268 267 265 264 262 261 260 259 258 257 256 255 254 253 251 251 250 249 249 249 249 249 248 248 247 246 246 246 245 245 244 243 242 241 241 240 240 239 240 240 240 240 240 240 240 240 239 239 238 238 238 238 239 239 239 239 239 238 238 237 236 236 235 234 233 232 232 232 232 232 231 231 231 230 230 229 229 230 230
280 278 276 275 273 271 270 269 267 266 264 263 262 261 260 259 258 257 256 255 253 252 251 250 250 249 249 249 249 248 248 247 247 246 246 245 245 245 244 243 242 241 240 240 239 239 239 239 239 239 240 240 240 239 239 238 238 238 238 238 239 239 239 239 239 238 238 237 237 236 235 234 233 232 232 232 231 231 231 231 230 230 230 229 229 229
279 278 276 275 273 272 271 269 268 267 265 264 263 262 261 260 259 258 257 256 255 253 252 251 250 249 249 248 248 248 248 247 247 246 246 245 245 245 244 243 242 242 241 240 240 239 239 239 239 239 239 239 239 239 239 238 238 238 238 238 238 238 239 239 239 239 238 238 238 237 236 235 234 233 232 232 231 231 231 231 231 230 230 229 229 229
278 277 276 275 273 272 271 270 269 268 266 265 264 263 262 261 260 259 258 256 255 254 253 251 250 249 249 248 248 248 248 248 247 246 245 245 245 245 244 244 243 242 241 240 240 239 239 239 239 239 239 239 239 239 239 238 238 238 237 237 238 238 238 239 239 239 239 239 238 238 237 236 235 234 233 232 232 231 231 231 231 231 230 230 229 229
277 276 275 274 273 272 271 271 270 269 268 266 265 264 263 261 260 259 258 257 255 254 253 252 251 250 249 248 248 248 248 248 247 246 245 245 245 245 244 244 243 243 242 241 240 240 239 239 238 238 238 238 238 239 239 238 238 238 237 237 238 238 238 239 239 239 239 239 239 238 238 237 236 235 234 233 232 231 231 231 231 231 230 230 230 229
276 275 274 273 272 271 271 270 270 270 269 268 266 265 263 262 260 259 258 257 255 254 253 252 251 250 249 248 248 248 248 247 247 246 245 245 245 244 244 244 244 243 242 241 241 240 239 239 238 238 238 238 238 238 238 238 238 238 238 238 238 238 238 238 238 238 239 239 239 238 238 238 237 236 235 233 232 232 231 231 231 231 231 230 230 230
277 275 274 273 272 271 270 270 270 270 269 268 267 266 264 262 261 259 258 257 256 254 253 252 251 250 249 249 248 248 248 247 247 246 246 245 244 244 244 244 244 243 242 242 241 240 239 239 238 238 238 238 238 238 238 238 238 238 238 238 238 238 238 238 238 238 238 238 238 238 238 238 237 236 235 234 233 232 232 231 231 231 231 231 230 230
279 277 275 273 272 271 270 270 270 270 269 269 268 266 264 263 261 260 258 257 256 255 253 252 251 250 250 249 248 248 248 248 247 247 246 245 245 244 244 244 244 243 243 242 241 241 240 239 238 238 238 238 238 238 238 238 238 238 238 238 238 238 238 238 238 238 238 238 238 238 238 237 237 237 236 235 234 233 232 231 231 231 231 231 231 230
281 279 276 274 273 272 271 270 269 269 269 269 268 267 265 263 261 260 259 257 256 255 254 253 252 251 250 249 249 248 248 248 247 247 246 245 245 245 244 244 244 243 243 242 242 241 240 239 239 238 238 238 237 237 237 238 238 238 238 238 238 237 237 237 237 238 238 238 238 238 238 238 238 237 237 236 235 234 233 232 231 231 231 231 231 231
283 281 279 277 275 273 272 271 270 269 269 268 268 267 265 264 262 260 259 257 256 255 254 253 252 251 251 250 249 249 249 248 248 247 246 246 245 245 245 244 244 243 243 242 242 241 241 240 239 239 238 238 237 237 237 237 237 237 237 237 237 237 237 237 237 237 238 238 238 238 238 238 238 238 237 237 236 235 234 233 232 231 231 231 231 231
285 283 281 279 277 275 274 272 271 270 269 268 268 267 266 264 263 261 259 257 256 255 254 253 252 252 251 251 250 250 249 249 248 247 247 246 245 245 245 244 244 243 243 242 242 241 241 240 239 239 238 238 237 237 237 237 237 236 236 236 236 236 236 236 237 237 237 238 238 238 239 238 238 238 237 237 236 235 234 233 232 232 231 231 231 231
286 285 283 281 279 278 276 274 272 271 270 269 268 267 266 265 263 261 259 257 256 255 254 253 253 252 252 251 251 250 250 249 249 248 247 246 245 245 245 245 244 243 243 242 242 241 241 240 240 239 238 238 237 237 237 236 236 236 236 236 236 236 236 236 236 237 237 237 238 238 238 238 238 238 237 237 236 236 235 234 233 232 231 231 231 231
288 286 285 283 282 280 278 276 274 273 271 270 269 268 266 265 263 261 260 258 257 255 254 253 253 252 252 251 251 251 250 250 249 248 247 246 246 245 245 245 244 243 243 242 242 241 241 240 240 239 238 238 237 237 237 236 236 236 236 236 236 236 236 236 236 236 236 237 237 237 237 237 237 237 237 237 236 236 235 234 233 232 232 231 231 230
289 288 286 285 283 281 280 278 276 274 273 271 270 268 267 265 263 262 260 259 257 256 255 254 253 252 252 251 251 251 250 249 249 248 247 247 246 246 245 245 244 243 243 242 242 241 241 240 240 239 238 238 237 237 236 236 236 236 236 236 236 236 235 235 235 235 235 235 236 236 236 236 236 236 236 236 236 235 235 234 234 233 232 231 231 230
291 289 288 286 284 283 281 279 277 276 274 272 271 269 267 266 264 262 261 259 258 256 255 254 253 252 252 251 251 251 250 250 249 248 247 247 246 246 245 245 244 243 242 242 241 241 240 240 240 239 238 238 237 236 236 236 235 235 235 235 235 235 235 235 234 234 234 234 234 235 235 235 235 235 235 235 235 235 235 234 234 233 232 232 231 231
291 290 289 287 286 284 282 280 279 277 275 274 272 270 268 266 264 263 261 260 258 257 255 254 253 252 252 251 251 251 250 250 249 248 247 247 246 245 245 244 243 243 242 241 241 240 240 240 239 239 238 237 237 236 236 235 235 235 235 235 235 235 234 234 234 233 233 233 233 233 234 234 234 234 234 234 234 234 234 234 234 233 233 232 231 231
291 290 289 288 286 285 283 282 280 278 277 275 273 271 269 267 265 263 262 260 259 257 256 255 254 253 252 251 251 251 251 250 249 248 247 246 245 245 244 243 243 242 241 240 240 240 239 239 239 238 237 237 236 236 235 235 234 234 234 234 234 234 233 233 233 232 232 232 232 232 232 233 233 233 233 233 234 234 234 234 233 233 233 232 232 231
291 290 289 288 287 285 284 282 281 279 278 276 274 272 270 268 266 264 262 261 259 258 257 255 254 253 252 252 251 251 251 250 249 247 246 245 244 244 243 243 242 241 240 240 239 239 238 238 238 237 237 236 235 235 234 234 234 233 233 233 233 233 233 232 232 231 231 231 231 231 231 231 232 232 232 233 233 233 233 233 233 233 233 232 232 231
292 291 290 288 287 286 285 283 282 280 279 277 275 273 271 269 267 265 263 262 260 259 257 256 255 254 253 252 252 251 250 249 248 246 245 244 244 243 243 242 241 241 240 239 238 238 237 237 237 236 236 235 235 234 234 233 233 233 232 232 232 232 232 231 231 231 230 230 230 230 230 230 231 231 231 232 232 232 232 233 233 233 233 232 232 232
292 291 290 289 288 287 285 284 283 281 280 278 276 274 272 270 268 266 265 263 261 260 258 257 255 254 253 252 252 251 250 248 247 245 244 243 243 242 242 241 241 240 239 238 237 237 236 236 236 236 235 234 234 233 233 232 232 232 231 231 231 231 231 231 230 230 230 230 230 230 230 230 230 230 230 231 231 231 232 232 232 232 232 232 232 232
292 291 290 289 288 287 286 286 285 283 282 280 278 276 274 272 270 268 266 264 262 261 259 257 256 255 253 252 251 250 249 248 246 245 244 243 243 242 242 241 240 239 238 237 236 236 236 235 235 235 234 234 233 233 232 231 231 231 230 230 230 230 230 230 230 230 229 229 229 229 229 229 229 229 229 230 230 230 231 231 231 232 232 232 232 232
291 290 289 289 289 288 288 288 287 286 284 282 280 278 275 273 271 268 266 264 263 261 259 258 256 255 253 252 251 250 249 247 246 245 244 243 242 242 241 240 239 238 237 236 235 235 235 234 234 234 233 233 232 232 231 230 230 230 229 229 229 229 229 229 229 229 229 229 228 228 228 228 228 228 228 229 229 230 230 231 231 231 232 232 232 232
291 290 290 290 291 291 291 291 290 288 286 284 281 279 276 273 271 268 266 264 262 261 259 257 256 254 253 252 250 249 248 247 246 245 244 243 242 241 240 239 238 237 236 235 234 234 233 233 233 232 232 231 231 230 230 229 229 229 228 228 228 228 228 228 228 228 228 228 227 227 227 227 227 227 228 228 228 229 229 230 230 231 231 231 232 232
295 295 295 296 296 296 296 295 293 290 287 284 281 278 276 273 270 268 265 263 262 260 258 257 255 254 252 251 249 248 247 246 245 244 243 242 241 240 239 238 237 235 234 234 233 232 232 232 231 231 230 230 229 229 228 228 227 227 227 226 226 226 226 226 226 226 226 226 226 226 226 226 226 226 227 227 227 228 229 229 230 230 231 231 231 231
304 303 304 304 303 302 300 298 294 291 287 284 281 278 275 273 270 268 265 263 261 259 257 256 254 252 251 249 248 247 246 244 243 242 242 240 239 238 237 236 235 234 233 232 231 231 230 230 229 229 229 228 227 227 226 226 225 225 225 225 225 225 225 225 225 225 225 225 225 225 225 225 225 225 225 226 226 227 228 228 229 229 230 230 230 231
312 312 311 310 308 305 302 299 295 292 288 285 282 278 275 273 270 267 265 263 261 259 257 255 253 251 250 248 247 245 244 243 242 241 240 239 238 236 235 234 233 232 231 230 229 229 228 228 227 227 227 226 226 225 224 224 223 223 223 223 223 223 223 223 223 223 223 224 224 224 224 224 224 224 224 225 225 226 227 227 228 229 229 230 230 230
318 317 315 313 310 307 304 300 297 294 290 287 283 280 276 273 270 268 265 263 261 258 256 254 252 250 248 246 245 243 242 241 240 239 238 236 235 234 233 232 231 230 229 228 227 227 226 226 225 225 224 224 223 223 222 222 221 221 221 221 221 221 221 221 221 222 222 222 222 222 222 223 223 223 223 223 224 225 225 226 227 228 228 229 229 229
321 319 318 315 312 310 306 303 300 297 294 290 286 282 278 275 271 268 266 263 260 258 255 253 250 248 246 244 243 241 240 239 237 236 235 234 233 232 230 229 228 227 227 226 225 224 224 223 223 222 222 221 221 220 220 219 219 219 218 218 219 219 219 219 219 220 220 220 221 221 221 221 221 222 222 222 223 223 224 225 226 227 227 228 228 229
326 324 322 320 317 314 311 308 305 301 298 294 290 285 281 278 274 270 267 264 261 258 254 252 249 246 244 241 240 238 237 236 234 233 232 231 229 228 227 226 225 224 224 223 222 222 221 220 220 219 219 218 218 218 217 216 216 216 216 215 216 216 216 217 217 218 218 219 219 219 219 220 220 220 221 221 221 222 223 224 225 226 226 227 228 228
333 331 329 326 324 321 317 314 310 307 303 299 294 290 286 282 279 275 271 267 263 259 254 250 247 244 241 239 237 235 234 232 231 230 228 227 226 225 224 223 222 221 220 220 219 218 218 217 216 216 215 215 214 214 214 213 213 213 212 212 213 213 214 214 215 215 216 217 217 217 218 218 218 219 219 220 220 221 221 222 223 224 225 226 227 227
340 338 336 333 330 328 324 320 317 313 309 305 301 297 293 289 286 281 277 271 266 261 255 250 245 241 238 235 233 231 230 228 227 225 224 223 222 221 220 219 218 218 217 216 215 215 214 213 213 212 212 211 211 210 210 209 209 209 209 209 210 210 211 212 212 213 214 214 215 215 216 216 217 217 218 218 219 219 220 221 222 223 224 225 226 227
346 345 343 340 338 335 331 328 324 321 317 314 310 306 302 299 295 290 283 276 269 262 256 250 244 239 234 231 229 226 224 223 221 220 218 217 216 216 215 214 214 213 213 212 211 210 210 209 208 208 207 207 207 206 206 206 206 206 206 206 207 208 209 209 210 210 211 212 213 213 214 214 215 216 217 217 218 218 219 220 221 222 223 224 225 226
351 350 349 348 346 344 341 338 335 332 329 326 323 320 316 312 307 300 292 282 272 263 256 248 241 235 230 226 223 220 218 216 215 214 212 211 210 209 209 209 209 209 208 207 207 206 205 205 204 204 203 203 203 203 202 202 203 203 203 204 204 205 206 207 207 208 209 210 211 211 212 213 214 215 215 216 217 217 218 219 220 221 222 223 224 225
355 356 357 358 357 355 354 351 350 348 346 344 342 340 336 333 326 317 306 290 275 261 251 242 234 228 224 220 217 214 211 209 208 207 205 204 204 203 203 203 203 203 203 203 202 201 201 200 200 200 199 199 199 199 199 199 200 200 200 201 202 203 203 204 205 206 207 208 209 209 210 211 212 213 214 215 215 216 217 218 219 220 221 222 223 224
360 2 6 9 10 10 9 8 6 6 5 4 5 5 5 3 358 352 339 316 280 252 232 223 218 213 210 209 207 205 202 200 199 197 197 197 197 196 196 196 197 197 197 197 197 197 196 196 196 196 196 196 196 196 196 197 197 197 198 198 199 200 201 202 203 204 205 206 207 208 209 210 211 211 212 213 214 215 216 217 218 219 220 221 222 223
4 7 12 18 22 24 25 23 22 22 22 23 25 27 29 32 34 36 41 52 77 123 159 174 180 184 187 190 191 192 191 190 188 186 186 187 187 188 188 188 189 189 190 190 190 191 191 191 191 192 192 192 193 193 193 194 194 195 195 196 197 198 199 200 201 202 203 204 205 206 207 208 209 210 211 212 213 214 215 216 217 218 219 220 221 222
Height
10293 10290 10289 10289 10287 10285 10282 10282 10280 10279 10277 10277 10276 10276 10275 10275 10276 10278 10280 10282 10284 10287 10289 10291 10293 10296 10299 10302 10304 10306 10308 10311 10314 10317 10320 10323 10327 10331 10335 10340 10343 10347 10350 10352 10356 10361 10367 10372 10377 10383 10388 10394 10400 10407 10414 10420 10427 10433 10438 10445 10452 10458 10464 10470 10475 10482 10487 10493 10499 10505 10510 10516 10522 10528 10534 10540 10547 10553 10560 10567 10573 10577 10582 10585 10589 10593
10278 10275 10274 10274 10272 10270 10268 10267 10266 10264 10263 10261 10261 10261 10262 10262 10262 10263 10265 10267 10270 10272 10274 10277 10279 10282 10285 10288 10290 10293 10295 10298 10301 10303 10307 10310 10313 10317 10322 10326 10330 10333 10337 10339 10342 10347 10353 10358 10364 10370 10375 10380 10387 10393 10401 10408 10415 10421 10427 10433 10440 10446 10452 10458 10463 10469 10475 10482 10488 10494 10500 10506 10512 10519 10525 10531 10537 10543 10550 10557 10563 10568 10573 10577 10582 10586
10264 10261 10260 10258 10258 10256 10255 10252 10250 10249 10248 10246 10246 10247 10248 10248 10248 10250 10251 10253 10255 10257 10259 10262 10265 10268 10271 10274 10277 10280 10282 10285 10288 10290 10293 10297 10300 10304 10308 10312 10317 10320 10323 10326 10329 10333 10339 10345 10351 10357 10362 10368 10374 10380 10387 10395 10402 10408 10415 10422 10428 10434 10440 10446 10452 10458 10463 10470 10476 10482 10489 10497 10503 10509 10516 10521 10527 10533 10540 10547 10553 10559 10564 10569 10573 10578
10250 10247 10244 10243 10243 10242 10241 10238 10235 10234 10233 10232 10232 10233 10234 10235 10235 10236 10237 10238 10240 10242 10244 10247 10250 10253 10257 10260 10263 10266 10269 10272 10275 10277 10280 10284 10288 10292 10295 10299 10303 10307 10311 10313 10317 10320 10325 10332 10338 10344 10350 10355 10361 10367 10374 10382 10388 10396 10403 10409 10416 10422 10428 10435 10440 10446 10452 10458 10464 10471 10478 10486 10493 10499 10505 10511 10517 10523 10529 10536 10542 10549 10555 10560 10565 10570
10236 10232 10230 10228 10228 10228 10227 10223 10222 10220 10219 10218 10218 10218 10220 10221 10222 10222 10223 10224 10226 10228 10229 10231 10233 10237 10241 10245 10248 10252 10255 10258 10261 10264 10268 10272 10275 10278 10282 10287 10290 10295 10298 10302 10304 10308 10312 10318 10325 10332 10337 10343 10349 10355 10361 10368 10375 10383 10390 10397 10404 10410 10417 10423 10429 10435 10440 10447 10453 10460 10467 10475 10482 10489 10495 10501 10507 10513 10519 10525 10532 10538 10545 10550 10555 10560
10221 10218 10215 10214 10214 10213 10212 10210 10208 10206 10204 10203 10204 10205 10206 10207 10208 10208 10210 10211 10212 10213 10213 10215 10218 10222 10226 10230 10234 10238 10242 10245 10248 10251 10255 10258 10262 10266 10270 10273 10278 10282 10286 10289 10292 10296 10300 10306 10312 10319 10325 10331 10337 10343 10349 10355 10363 10370 10378 10385 10392 10398 10405 10412 10417 10423 10429 10435 10442 10448 10456 10463 10471 10478 10485 10491 10497 10503 10510 10516 10522 10528 10534 10540 10545 10550
10207 10204 10202 10200 10199 10198 10198 10197 10195 10192 10190 10189 10190 10192 10192 10193 10194 10195 10196 10197 10197 10198 10200 10202 10205 10208 10212 10215 10220 10223 10228 10231 10235 10238 10242 10245 10250 10253 10257 10261 10265 10269 10273 10277 10280 10284 10288 10294 10300 10307 10313 10319 10325 10331 10337 10343 10350 10358 10365 10372 10380 10387 10393 10400 10406 10412 10418 10424 10430 10437 10445 10452 10459 10467 10474 10481 10487 10493 10500 10506 10512 10518 10524 10530 10535 10540
10192 10190 10188 10186 10185 10184 10184 10183 10181 10178 10175 10175 10177 10178 10180 10180 10180 10180 10182 10182 10183 10185 10187 10189 10192 10195 10198 10201 10205 10208 10212 10217 10221 10225 10228 10232 10237 10240 10244 10248 10252 10255 10260 10264 10268 10272 10277 10283 10289 10295 10302 10308 10313 10320 10325 10332 10338 10345 10352 10360 10367 10375 10381 10388 10394 10401 10407 10413 10420 10427 10433 10440 10448 10455 10463 10470 10477 10483 10490 10497 10502 10508 10513 10519 10525 10531
10178 10177 10175 10173 10171 10170 10170 10170 10167 10165 10162 10162 10163 10166 10167 10167 10167 10167 10168 10169 10171 10173 10174 10176 10178 10181 10183 10187 10189 10193 10197 10202 10207 10211 10215 10219 10223 10227 10231 10235 10238 10242 10246 10250 10255 10260 10266 10272 10278 10284 10290 10297 10302 10308 10314 10320 10327 10333 10340 10347 10355 10362 10368 10375 10382 10390 10396 10403 10409 10415 10422 10429 10437 10444 10451 10458 10466 10473 10480 10487 10492 10498 10503 10509 10515 10521
10165 10163 10161 10160 10159 10158 10157 10156 10154 10152 10150 10149 10151 10153 10153 10153 10153 10154 10155 10157 10158 10160 10161 10163 10166 10168 10170 10172 10175 10178 10183 10187 10192 10197 10202 10205 10210 10214 10218 10222 10225 10229 10233 10237 10242 10248 10253 10260 10266 10272 10279 10285 10291 10297 10303 10309 10315 10322 10328 10335 10342 10349 10356 10363 10370 10378 10385 10392 10398 10405 10411 10418 10425 10432 10440 10447 10455 10462 10470 10476 10482 10488 10493 10499 10505 10511
10152 10150 10148 10147 10147 10145 10144 10142 10141 10139 10138 10137 10138 10140 10141 10141 10141 10142 10143 10145 10147 10147 10148 10151 10153 10155 10157 10160 10162 10165 10168 10172 10177 10182 10187 10192 10197 10201 10205 10208 10212 10216 10220 10224 10228 10234 10240 10247 10253 10260 10267 10274 10280 10287 10292 10298 10304 10310 10317 10323 10330 10337 10343 10351 10358 10366 10373 10380 10387 10393 10400 10407 10413 10421 10428 10436 10443 10452 10459 10466 10472 10478 10483 10489 10495 10501
10138 10137 10137 10136 10135 10133 10132 10130 10128 10127 10126 10125 10126 10127 10128 10128 10128 10130 10132 10134 10135 10136 10137 10138 10140 10143 10146 10148 10150 10152 10154 10158 10163 10168 10173 10178 10183 10188 10192 10196 10200 10203 10207 10211 10215 10221 10227 10233 10241 10248 10255 10263 10270 10276 10282 10287 10293 10299 10305 10312 10318 10324 10332 10339 10347 10355 10362 10368 10375 10382 10389 10396 10403 10410 10417 10425 10432 10440 10448 10455 10462 10468 10473 10479 10485 10492
10127 10125 10125 10124 10123 10122 10120 10118 10116 10115 10115 10114 10113 10115 10116 10117 10117 10119 10121 10123 10125 10125 10125 10127 10129 10132 10135 10137 10138 10140 10142 10145 10149 10154 10160 10165 10170 10175 10178 10182 10187 10190 10194 10198 10203 10208 10215 10222 10228 10236 10243 10251 10258 10265 10271 10277 10282 10288 10294 10300 10307 10313 10320 10327 10335 10342 10350 10357 10363 10371 10378 10385 10392 10398 10406 10413 10421 10429 10437 10444 10451 10458 10463 10469 10475 10482
10116 10115 10114 10113 10112 10110 10108 10106 10105 10104 10103 10103 10102 10103 10105 10106 10107 10108 10110 10112 10114 10115 10115 10117 10119 10121 10123 10124 10126 10128 10130 10132 10136 10141 10146 10152 10157 10161 10165 10169 10174 10178 10182 10187 10192 10198 10204 10210 10217 10223 10231 10238 10247 10253 10260 10266 10272 10277 10283 10289 10295 10302 10308 10315 10323 10330 10337 10344 10352 10359 10367 10374 10381 10388 10395 10402 10410 10417 10425 10433 10440 10447 10453 10460 10466 10472
10106 10105 10103 10103 10101 10098 10096 10094 10093 10093 10093 10092 10092 10093 10095 10097 10098 10098 10099 10101 10103 10105 10105 10107 10110 10111 10112 10113 10114 10115 10117 10120 10124 10128 10133 10138 10143 10147 10152 10157 10163 10167 10172 10177 10182 10188 10193 10199 10205 10212 10218 10226 10233 10241 10248 10255 10260 10266 10272 10278 10284 10290 10297 10304 10311 10318 10325 10332 10339 10347 10355 10363 10370 10377 10384 10392 10399 10407 10414 10422 10429 10437 10443 10450 10456 10462
10097 10095 10093 10092 10090 10088 10085 10083 10083 10083 10083 10082 10082 10083 10085 10087 10088 10088 10089 10091 10093 10095 10097 10098 10100 10102 10103 10103 10102 10103 10105 10108 10113 10117 10122 10126 10130 10135 10140 10146 10152 10157 10162 10167 10173 10178 10183 10188 10193 10200 10207 10213 10220 10228 10236 10243 10249 10255 10261 10267 10272 10278 10285 10292 10299 10306 10313 10320 10327 10335 10343 10351 10359 10367 10373 10381 10388 10396 10403 10411 10418 10426 10433 10440 10447 10453
10087 10085 10083 10082 10080 10078 10076 10074 10073 10073 10073 10073 10074 10075 10077 10078 10079 10080 10080 10082 10083 10085 10088 10089 10091 10092 10093 10093 10092 10091 10092 10096 10101 10106 10111 10115 10120 10124 10128 10134 10139 10145 10151 10157 10162 10168 10172 10177 10183 10189 10195 10201 10208 10215 10223 10230 10237 10243 10250 10255 10261 10267 10273 10280 10287 10294 10301 10308 10316 10324 10332 10340 10348 10356 10363 10371 10378 10386 10393 10400 10408 10415 10423 10430 10437 10443
10079 10077 10074 10072 10070 10068 10067 10065 10064 10063 10064 10065 10066 10067 10069 10070 10071 10071 10072 10073 10075 10077 10079 10080 10082 10083 10084 10083 10082 10080 10080 10083 10090 10096 10102 10106 10110 10113 10117 10122 10127 10133 10140 10146 10152 10157 10162 10167 10173 10178 10183 10189 10196 10203 10210 10217 10225 10232 10238 10244 10250 10257 10263 10270 10277 10283 10290 10298 10305 10313 10322 10330 10338 10346 10354 10362 10368 10376 10383 10390 10397 10405 10412 10419 10426 10433
10072 10069 10067 10064 10062 10060 10059 10057 10055 10055 10056 10057 10058 10060 10062 10063 10063 10063 10063 10065 10066 10068 10070 10072 10073 10074 10074 10073 10072 10070 10070 10073 10080 10086 10092 10097 10100 10102 10105 10110 10116 10122 10129 10135 10141 10146 10151 10157 10162 10168 10173 10178 10185 10191 10198 10205 10212 10220 10227 10234 10241 10247 10253 10260 10267 10274 10281 10288 10296 10303 10312 10320 10328 10336 10343 10351 10358 10366 10373 10380 10387 10394 10402 10409 10416 10423
10065 10063 10060 10057 10055 10054 10052 10050 10048 10047 10047 10049 10051 10053 10054 10055 10055 10055 10055 10057 10057 10059 10060 10062 10063 10064 10064 10063 10063 10062 10062 10064 10069 10076 10082 10087 10090 10092 10095 10099 10105 10111 10118 10125 10130 10135 10140 10147 10153 10158 10163 10168 10175 10180 10187 10193 10202 10210 10217 10223 10230 10236 10242 10249 10257 10264 10272 10279 10286 10293 10302 10309 10317 10325 10333 10341 10348 10356 10363 10371 10378 10385 10392 10399 10406 10413
10058 10056 10054 10051 10050 10048 10045 10043 10042 10040 10040 10042 10044 10045 10046 10047 10047 10047 10047 10048 10049 10050 10052 10053 10053 10054 10055 10055 10054 10053 10053 10055 10060 10067 10072 10077 10081 10083 10087 10090 10095 10101 10108 10114 10120 10125 10130 10136 10142 10147 10152 10158 10164 10170 10176 10183 10191 10198 10205 10212 10219 10227 10233 10241 10248 10255 10262 10269 10276 10283 10290 10298 10307 10315 10323 10330 10338 10347 10354 10362 10369 10376 10383 10390 10397 10403
10051 10048 10047 10045 10044 10043 10039 10038 10037 10034 10034 10035 10037 10038 10039 10040 10040 10040 10040 10040 10042 10043 10044 10044 10044 10045 10046 10047 10046 10045 10045 10048 10052 10058 10063 10070 10073 10075 10078 10080 10085 10092 10098 10104 10109 10114 10120 10125 10131 10137 10142 10148 10153 10160 10166 10173 10180 10187 10193 10202 10208 10216 10225 10232 10238 10245 10251 10257 10264 10272 10280 10287 10295 10303 10312 10320 10329 10337 10345 10353 10360 10368 10374 10380 10387 10394
10043 10042 10041 10040 10038 10037 10034 10033 10031 10030 10028 10030 10030 10031 10032 10033 10033 10033 10033 10033 10034 10035 10035 10036 10037 10038 10038 10038 10038 10038 10038 10041 10045 10050 10057 10063 10065 10066 10069 10072 10077 10083 10088 10093 10098 10103 10109 10115 10121 10127 10132 10138 10144 10150 10157 10164 10171 10178 10185 10193 10200 10207 10215 10222 10228 10234 10240 10246 10253 10260 10268 10276 10285 10293 10302 10310 10320 10328 10337 10345 10352 10359 10366 10372 10378 10385
10036 10035 10034 10033 10032 10030 10029 10028 10026 10025 10024 10023 10023 10023 10025 10026 10027 10027 10027 10027 10027 10027 10027 10029 10030 10031 10030 10030 10030 10031 10032 10035 10038 10045 10052 10055 10057 10058 10061 10065 10069 10075 10079 10084 10089 10094 10100 10106 10112 10117 10123 10129 10135 10141 10148 10155 10162 10170 10177 10184 10191 10198 10205 10214 10220 10225 10231 10237 10244 10252 10259 10267 10275 10284 10293 10302 10311 10320 10328 10337 10344 10351 10357 10363 10369 10376
10030 10028 10028 10027 10026 10025 10023 10023 10021 10020 10019 10018 10018 10018 10018 10019 10020 10021 10021 10020 10020 10021 10022 10023 10024 10023 10022 10023 10024 10025 10026 10028 10033 10039 10045 10048 10049 10051 10054 10057 10062 10067 10071 10076 10080 10085 10091 10097 10103 10108 10114 10120 10126 10132 10139 10146 10153 10160 10167 10173 10180 10187 10196 10204 10210 10216 10223 10230 10237 10245 10253 10261 10268 10277 10285 10293 10302 10311 10320 10328 10335 10342 10348 10354 10360 10367
10024 10023 10022 10020 10020 10018 10018 10017 10015 10015 10013 10013 10013 10013 10013 10014 10015 10015 10015 10014 10014 10015 10017 10018 10017 10016 10016 10017 10018 10019 10020 10023 10028 10032 10037 10040 10043 10045 10047 10050 10054 10059 10063 10068 10072 10077 10082 10088 10094 10100 10106 10112 10118 10123 10130 10137 10143 10150 10156 10163 10170 10177 10185 10193 10200 10207 10215 10223 10230 10238 10247 10255 10262 10270 10277 10285 10294 10302 10310 10318 10326 10333 10339 10345 10352 10358
10018 10017 10016 10015 10014 10013 10012 10011 10010 10009 10008 10008 10008 10008 10009 10010 10010 10010 10008 10007 10007 10009 10012 10011 10010 10010 10011 10012 10013 10013 10015 10018 10022 10026 10030 10034 10037 10038 10040 10043 10047 10052 10057 10060 10065 10069 10075 10080 10086 10092 10098 10103 10109 10115 10122 10128 10134 10140 10147 10153 10160 10167 10175 10184 10192 10201 10209 10217 10224 10232 10240 10247 10255 10262 10270 10277 10285 10293 10301 10308 10316 10323 10330 10336 10342 10348
10013 10012 10012 10010 10009 10008 10007 10006 10005 10004 10003 10003 10003 10004 10005 10006 10006 10003 10001 10001 10002 10004 10005 10005 10004 10005 10005 10007 10007 10008 10010 10013 10015 10019 10024 10029 10032 10033 10034 10037 10040 10045 10050 10053 10058 10062 10068 10073 10078 10084 10090 10095 10101 10107 10113 10119 10125 10131 10138 10145 10152 10159 10168 10177 10185 10194 10203 10210 10217 10225 10232 10239 10247 10254 10262 10269 10277 10284 10292 10298 10306 10313 10320 10327 10333 10340
10008 10007 10006 10005 10004 10003 10002 10001 10000 9999 9998 9998 9998 10000 10001 10002 10000 9997 9996 9997 9998 10000 9999 9998 9999 10000 10000 10001 10002 10003 10005 10007 10010 10014 10020 10025 10027 10027 10028 10030 10034 10038 10043 10047 10052 10056 10061 10066 10071 10076 10082 10087 10093 10098 10105 10110 10116 10122 10129 10137 10143 10152 10160 10168 10178 10187 10195 10202 10209 10217 10223 10231 10238 10246 10253 10260 10268 10275 10282 10289 10296 10303 10310 10317 10324 10332
10004 10003 10002 10000 9999 9998 9997 9996 9995 9994 9994 9994 9994 9995 9996 9996 9995 9993 9992 9993 9994 9995 9993 9993 9994 9995 9996 9997 9997 9998 9999 10002 10005 10011 10017 10021 10022 10021 10022 10024 10028 10032 10037 10042 10046 10050 10054 10058 10063 10068 10074 10080 10085 10091 10097 10102 10108 10115 10122 10128 10136 10143 10152 10161 10170 10178 10186 10193 10201 10208 10215 10222 10230 10237 10245 10252 10259 10266 10273 10280 10287 10293 10301 10308 10316 10323
10000 9998 9997 9996 9995 9994 9993 9992 9991 9990 9990 9989 9990 9990 9990 9990 9990 9988 9989 9990 9990 9989 9988 9989 9990 9990 9992 9992 9993 9993 9994 9998 10003 10008 10013 10015 10015 10015 10016 10018 10021 10025 10031 10035 10040 10044 10048 10052 10057 10062 10067 10072 10078 10083 10088 10094 10100 10107 10114 10121 10128 10136 10144 10153 10161 10169 10177 10184 10192 10198 10206 10214 10222 10229 10237 10243 10251 10258 10264 10271 10278 10285 10292 10300 10307 10315
9996 9995 9993 9992 9991 9990 9989 9988 9987 9986 9985 9985 9985 9985 9985 9985 9985 9985 9985 9985 9985 9985 9985 9985 9985 9987 9987 9988 9989 9990 9991 9995 10000 10004 10008 10008 10008 10008 10009 10012 10015 10020 10025 10030 10034 10038 10042 10045 10050 10054 10060 10065 10070 10075 10081 10087 10093 10100 10107 10113 10121 10128 10136 10144 10152 10160 10167 10175 10182 10190 10197 10205 10213 10221 10228 10235 10242 10249 10256 10263 10270 10277 10284 10292 10299 10307
9993 9992 9990 9989 9988 9987 9985 9984 9983 9983 9982 9982 9981 9981 9980 9980 9980 9981 9980 9980 9981 9981 9982 9982 9982 9983 9983 9984 9985 9987 9989 9992 9996 9999 10001 10002 10001 10002 10003 10007 10010 10015 10019 10024 10028 10032 10036 10039 10043 10047 10052 10057 10063 10068 10074 10080 10087 10093 10100 10107 10113 10120 10127 10135 10143 10151 10158 10166 10173 10181 10189 10197 10205 10213 10220 10228 10235 10242 10248 10255 10262 10269 10277 10284 10291 10298
9990 9988 9987 9985 9984 9983 9982 9981 9980 9979 9978 9978 9978 9977 9977 9977 9977 9977 9977 9977 9977 9977 9978 9978 9978 9979 9980 9981 9982 9983 9986 9988 9991 9993 9995 9995 9995 9996 9998 10002 10006 10010 10015 10020 10023 10027 10030 10033 10037 10041 10045 10050 10056 10062 10068 10073 10080 10086 10093 10099 10105 10112 10119 10127 10135 10143 10150 10158 10166 10174 10182 10190 10198 10205 10213 10220 10227 10234 10241 10248 10255 10262 10270 10277 10283 10291
9987 9985 9984 9983 9981 9980 9979 9978 9977 9977 9976 9975 9975 9974 9974 9973 9973 9973 9973 9973 9973 9973 9974 9975 9975 9976 9977 9978 9979 9981 9982 9984 9986 9988 9989 9989 9990 9992 9995 9998 10003 10007 10011 10015 10018 10022 10025 10027 10031 10035 10040 10045 10050 10056 10062 10067 10073 10080 10087 10093 10099 10105 10112 10120 10128 10136 10143 10152 10159 10167 10175 10183 10191 10198 10205 10213 10220 10227 10233 10241 10248 10255 10262 10269 10277 10285
9984 9983 9981 9980 9978 9977 9976 9975 9975 9974 9973 9973 9972 9972 9971 9970 9970 9970 9970 9970 9970 9971 9971 9972 9972 9973 9974 9975 9976 9977 9978 9980 9982 9983 9984 9985 9987 9990 9993 9996 10000 10003 10007 10010 10013 10017 10020 10022 10026 10030 10035 10040 10045 10050 10056 10062 10068 10074 10080 10087 10093 10100 10107 10115 10122 10130 10138 10145 10153 10161 10168 10177 10184 10192 10198 10206 10213 10220 10227 10234 10242 10248 10256 10263 10270 10279
9982 9980 9978 9977 9976 9975 9973 9973 9972 9972 9972 9970 9970 9969 9968 9968 9967 9967 9967 9967 9967 9968 9968 9968 9969 9970 9971 9972 9973 9974 9975 9977 9978 9980 9981 9983 9985 9988 9990 9993 9997 10000 10003 10006 10009 10012 10015 10018 10022 10027 10031 10035 10040 10045 10051 10057 10063 10069 10075 10081 10087 10094 10101 10109 10117 10125 10132 10140 10147 10155 10162 10170 10178 10185 10192 10200 10207 10214 10222 10228 10235 10243 10250 10257 10265 10274
9979 9978 9976 9975 9973 9973 9972 9970 9970 9969 9969 9968 9967 9967 9966 9965 9965 9965 9965 9965 9965 9965 9965 9966 9967 9967 9968 9969 9970 9972 9973 9974 9975 9977 9979 9981 9983 9986 9988 9990 9993 9996 9999 10002 10005 10008 10012 10015 10018 10022 10026 10030 10035 10041 10047 10052 10058 10063 10069 10075 10082 10088 10096 10103 10111 10118 10126 10133 10141 10148 10156 10163 10172 10179 10186 10193 10201 10208 10216 10223 10230 10237 10244 10252 10260 10269
9977 9975 9974 9973 9972 9970 9970 9968 9968 9967 9967 9966 9965 9964 9964 9963 9963 9963 9963 9962 9963 9963 9963 9963 9964 9965 9966 9967 9968 9969 9970 9971 9973 9975 9977 9979 9981 9983 9985 9987 9990 9992 9995 9998 10002 10005 10008 10011 10014 10018 10022 10027 10031 10037 10042 10047 10053 10058 10064 10071 10078 10084 10091 10098 10105 10113 10120 10127 10135 10142 10150 10158 10165 10173 10180 10188 10196 10203 10210 10217 10224 10232 10239 10247 10255 10263
9975 9973 9972 9971 9970 9969 9968 9967 9966 9965 9965 9963 9963 9962 9962 9962 9961 9961 9961 9961 9961 9961 9961 9962 9962 9963 9963 9965 9965 9967 9968 9969 9970 9972 9975 9976 9978 9980 9983 9985 9987 9989 9992 9995 9998 10002 10005 10007 10010 10014 10018 10023 10027 10032 10037 10043 10048 10053 10060 10067 10073 10078 10085 10092 10099 10107 10113 10121 10129 10137 10144 10152 10160 10167 10175 10182 10190 10197 10204 10211 10218 10225 10233 10242 10249 10257
9973 9972 9970 9970 9968 9968 9967 9966 9965 9964 9963 9962 9962 9961 9960 9960 9960 9959 9959 9959 9959 9959 9960 9960 9960 9961 9962 9962 9963 9965 9966 9967 9968 9970 9972 9973 9976 9978 9980 9982 9984 9987 9990 9993 9995 9998 10002 10005 10008 10011 10015 10019 10024 10029 10034 10039 10044 10050 10057 10062 10067 10073 10080 10087 10095 10102 10108 10116 10123 10131 10138 10146 10154 10162 10170 10177 10185 10192 10198 10206 10213 10221 10229 10237 10244 10251
9973 9971 9970 9968 9967 9967 9965 9965 9963 9963 9962 9961 9960 9960 9959 9958 9958 9958 9958 9958 9958 9958 9958 9958 9959 9960 9960 9961 9962 9963 9964 9965 9967 9968 9970 9972 9973 9975 9978 9980 9982 9985 9988 9990 9993 9995 9999 10002 10005 10009 10013 10017 10022 10027 10031 10036 10042 10047 10053 10058 10063 10070 10077 10084 10090 10097 10104 10111 10118 10126 10133 10142 10149 10157 10165 10172 10180 10187 10194 10202 10209 10217 10224 10231 10238 10245
9972 9970 9969 9968 9967 9966 9965 9964 9963 9962 9961 9960 9959 9958 9958 9957 9957 9957 9957 9957 9957 9957 9957 9957 9958 9958 9959 9960 9960 9962 9963 9964 9965 9967 9968 9970 9972 9974 9976 9978 9981 9983 9987 9989 9990 9993 9997 10000 10003 10007 10010 10015 10020 10025 10028 10033 10038 10043 10049 10054 10061 10068 10075 10080 10086 10093 10100 10107 10114 10122 10129 10137 10145 10152 10160 10167 10175 10182 10190 10197 10205 10211 10218 10225 10232 10239
9972 9970 9969 9967 9967 9965 9964 9963 9962 9962 9961 9960 9959 9958 9957 9957 9957 9957 9956 9956 9956 9956 9956 9956 9957 9957 9958 9958 9960 9960 9962 9963 9964 9966 9967 9969 9971 9973 9975 9977 9979 9982 9985 9987 9989 9991 9995 9998 10001 10005 10009 10013 10018 10022 10026 10031 10036 10041 10046 10052 10058 10064 10069 10075 10082 10088 10096 10103 10110 10118 10125 10133 10140 10148 10156 10163 10170 10178 10185 10192 10199 10205 10212 10219 10226 10233
9972 9970 9968 9967 9966 9965 9963 9963 9962 9961 9960 9960 9958 9958 9957 9957 9957 9957 9956 9956 9956 9956 9956 9956 9957 9957 9958 9958 9959 9960 9961 9962 9963 9965 9966 9967 9969 9972 9973 9975 9978 9980 9983 9985 9987 9990 9993 9996 9999 10003 10007 10012 10015 10020 10024 10028 10033 10038 10043 10049 10055 10060 10066 10072 10079 10086 10093 10100 10107 10114 10122 10129 10137 10145 10152 10158 10165 10172 10180 10187 10193 10200 10207 10214 10221 10227
9972 9970 9968 9967 9966 9965 9963 9962 9961 9960 9959 9958 9958 9957 9957 9957 9956 9956 9956 9956 9956 9956 9956 9956 9957 9957 9957 9957 9958 9959 9960 9961 9962 9963 9964 9966 9968 9970 9972 9973 9976 9978 9980 9983 9985 9988 9992 9994 9998 10002 10005 10009 10013 10017 10022 10026 10031 10036 10040 10046 10052 10057 10063 10070 10076 10082 10088 10095 10103 10110 10118 10125 10133 10140 10147 10153 10160 10167 10174 10181 10188 10195 10202 10208 10215 10222
9972 9970 9968 9967 9966 9965 9963 9962 9961 9960 9959 9958 9958 9957 9957 9956 9956 9955 9955 9955 9955 9955 9955 9956 9956 9957 9957 9957 9957 9958 9959 9960 9961 9962 9963 9965 9967 9968 9970 9973 9975 9977 9979 9982 9985 9987 9990 9993 9997 10000 10003 10008 10012 10015 10020 10024 10029 10033 10038 10043 10049 10055 10060 10066 10072 10078 10085 10093 10099 10107 10114 10122 10129 10135 10142 10148 10155 10162 10170 10177 10183 10190 10197 10203 10210 10216
9972 9970 9969 9968 9967 9965 9963 9962 9962 9960 9959 9958 9958 9957 9957 9956 9956 9956 9956 9955 9955 9955 9955 9956 9956 9956 9957 9957 9958 9958 9959 9960 9961 9962 9963 9965 9967 9968 9970 9972 9974 9976 9978 9981 9983 9986 9989 9992 9995 9999 10002 10006 10010 10014 10018 10022 10027 10032 10037 10042 10047 10052 10058 10064 10070 10077 10083 10090 10097 10103 10111 10118 10124 10130 10137 10144 10152 10158 10165 10172 10179 10185 10192 10198 10205 10211
9973 9972 9970 9968 9967 9965 9964 9963 9962 9961 9960 9959 9958 9958 9957 9957 9957 9957 9957 9956 9956 9956 9956 9956 9956 9957 9957 9957 9958 9958 9959 9960 9961 9962 9963 9965 9967 9968 9970 9972 9973 9975 9978 9980 9983 9986 9988 9992 9995 9998 10002 10005 10009 10013 10017 10021 10025 10030 10035 10040 10045 10051 10057 10062 10068 10075 10081 10087 10093 10100 10107 10113 10120 10126 10133 10141 10147 10153 10160 10167 10174 10181 10187 10193 10200 10205
9973 9972 9970 9969 9968 9967 9965 9964 9963 9962 9961 9960 9960 9959 9958 9958 9957 9957 9957 9957 9957 9957 9957 9957 9957 9957 9957 9958 9958 9959 9960 9960 9962 9963 9964 9965 9967 9968 9970 9972 9974 9976 9978 9980 9983 9986 9989 9992 9995 9998 10002 10005 10009 10012 10016 10020 10025 10029 10034 10038 10044 10049 10055 10060 10066 10072 10078 10084 10090 10097 10103 10110 10117 10123 10130 10137 10143 10149 10155 10163 10170 10176 10182 10188 10195 10200
9974 9973 9972 9970 9969 9968 9967 9965 9964 9963 9962 9962 9961 9960 9960 9959 9958 9958 9958 9958 9957 9957 9957 9957 9957 9958 9958 9958 9959 9960 9961 9962 9963 9964 9965 9966 9968 9969 9971 9972 9974 9977 9978 9981 9983 9986 9989 9992 9995 9998 10002 10005 10009 10012 10016 10020 10024 10028 10033 10038 10043 10048 10053 10059 10065 10071 10077 10082 10088 10095 10101 10107 10114 10120 10127 10133 10139 10145 10152 10159 10165 10171 10177 10183 10189 10195